CAPE
0 0 0 0 0 0 0 0 0 0 0 0 0 0 0 0 0 0 0 0 0 0 0 0 0 0 0 0 0 0 0 221 2115 2069 2258 2344 2488 2558 2489 2468 2343 2300 2287 2230 2219 2380 2444 2281 2167 2066 2013 1948 1250 803 950 894 970 990 770 665 637 650 660 549 542 736 777 600 614 632 1152 1121 1234 1182 1098 1000 866 835 657 836 893 924 919 962 892 804
0 0 0 0 0 0 0 0 0 0 0 0 0 0 0 0 0 0 0 0 0 0 0 0 0 0 0 0 0 0 0 0 642 1865 2147 2331 2442 2537 2476 2492 2461 2279 2198 2145 2293 2300 2310 2271 2151 2106 2136 2042 1579 900 921 1031 805 981 1035 820 746 680 953 1208 589 758 838 803 604 715 1185 1222 1222 1254 1101 976 790 828 746 863 978 936 805 884 916 778
0 0 0 0 0 0 0 0 0 0 0 0 0 0 0 0 0 0 0 0 0 0 0 0 0 0 0 0 0 0 0 0 55 1535 2070 2310 2439 2503 2455 2513 2442 2324 2208 2224 2216 2176 2195 2263 2221 2148 2129 2093 1891 1287 1024 1123 1008 882 1074 1059 722 938 862 949 774 793 812 804 832 1174 1293 1304 1253 1313 1372 1068 1029 917 1018 1045 968 847 741 753 814 759
0 0 0 0 0 0 0 0 0 0 0 0 0 0 0 0 0 0 0 0 0 0 0 0 0 0 0 0 0 0 0 0 0 326 1721 2359 2478 2516 2555 2424 2391 2290 2308 2198 2186 2187 2066 2136 2210 2208 2187 2200 2074 1751 1327 1196 1210 1074 1067 1116 786 817 816 1154 897 667 701 849 892 1180 1411 1403 1314 1171 1062 1038 1012 1096 976 816 810 756 675 671 673 667
0 0 0 0 0 0 0 0 0 0 0 0 0 0 0 0 0 0 0 0 0 0 0 0 0 0 0 0 0 0 0 0 0 0 22 1720 2450 2538 2652 2604 2576 2478 2254 2238 2233 2202 2155 2002 2098 2124 2158 2229 2213 2120 1811 1288 1227 1123 1071 1040 762 626 633 933 711 616 747 993 1130 1268 1342 1048 1013 989 953 1005 1047 968 839 773 756 738 689 645 665 719
0 0 0 0 0 0 0 0 0 0 0 0 0 0 0 0 0 0 0 0 0 0 0 0 0 0 4 0 0 0 13 114 0 0 0 158 1808 2508 2624 2526 2399 2360 2267 2209 2099 2069 1994 2101 1994 2079 2169 2300 2292 2222 2059 1533 1275 1294 1146 979 899 750 730 642 677 832 927 933 1128 1022 1028 1008 1045 1008 967 1042 958 865 902 923 717 652 608 651 724 720
0 0 0 0 0 0 0 0 0 0 0 0 0 0 0 0 0 0 0 0 0 0 0 0 0 0 5 0 0 0 41 156 57 0 0 48 817 2249 2527 2382 2480 2410 2337 2298 2153 2067 2136 2195 1877 1907 2029 2218 2322 2284 2162 1785 1464 1418 1161 1022 962 882 866 833 792 790 909 1132 1143 1198 1213 1263 1286 1170 1129 1146 985 986 832 715 640 604 657 715 705 720
0 0 0 0 0 0 0 0 0 0 0 0 0 0 0 0 0 0 0 0 0 0 0 0 0 0 6 19 2 31 143 275 130 66 116 309 844 1645 2113 2343 2484 2387 2261 2249 2154 2086 2143 1997 1736 1825 1967 2167 2280 2348 2205 1899 1583 1326 1224 1067 1007 868 842 926 864 894 834 1063 1186 1330 1420 1434 1412 1483 1169 1056 879 683 645 736 687 708 760 740 712 676
0 0 0 0 0 0 0 0 0 0 0 0 0 0 0 0 0 0 0 0 0 0 0 0 0 0 0 1 0 200 176 358 272 464 358 322 965 1544 1813 1929 2063 2179 2291 2181 2050 2142 2141 1946 1631 1708 2027 2210 2326 2320 2203 1940 1580 1180 1286 966 981 946 961 953 928 918 1033 1160 1253 1354 1238 1306 1370 1439 1144 894 721 635 669 709 712 737 737 757 675 650
0 0 0 0 0 0 0 0 0 0 0 0 0 0 0 0 0 0 0 0 0 0 0 1 0 0 7 35 94 216 258 500 481 469 500 405 584 1053 1542 1745 1936 1975 2035 2095 2087 2055 2059 1795 1565 1627 2022 2233 2233 2079 1950 1801 1465 1146 1230 1144 1017 998 999 1005 1024 1149 1291 1292 1407 1296 1372 1387 1173 1004 829 918 882 836 746 647 698 720 786 719 737 735
0 0 0 0 0 0 0 0 0 0 0 0 0 0 0 0 0 0 0 0 0 0 0 14 0 0 4 16 150 425 826 345 404 543 701 786 750 898 1277 1464 1628 1678 1738 1830 1775 1629 1820 1617 1571 1660 2031 2136 1979 1764 1559 1342 1223 1079 1122 1214 1141 1134 983 1046 1083 1171 1360 1436 1534 1342 1355 1342 1183 1188 1221 1058 795 858 894 755 705 798 732 691 707 764
0 0 0 0 0 0 0 0 0 0 0 0 0 0 0 0 0 0 0 0 0 0 15 0 0 0 10 17 96 192 358 549 646 714 773 835 853 1022 1228 1332 1540 1595 1580 1598 1539 1420 1463 1554 1683 1668 1954 2014 1905 1638 1130 935 1096 1123 1066 1189 1365 1225 1284 1110 1175 1322 1523 1554 1452 1394 1412 1317 1263 1330 1418 1509 1398 1382 1306 905 936 867 754 750 734 648
0 0 0 0 0 0 0 0 0 0 0 0 0 0 0 0 0 0 0 0 0 7 3 0 0 0 0 9 179 234 557 701 826 738 737 800 744 1002 1164 1402 1554 1515 1536 1446 1358 1283 1300 1423 1674 1676 1829 1975 1694 1338 1042 988 1049 1061 1138 1291 1407 1380 1309 1313 1354 1442 1495 1464 1506 1547 1568 1359 1369 1591 1657 1666 1570 1380 1311 1170 700 608 788 621 752 797
0 0 0 0 0 0 0 0 0 0 0 0 0 0 0 0 0 0 0 0 1 0 0 0 0 0 14 20 273 676 784 844 834 813 921 820 987 1193 1388 1570 1510 1526 1524 1441 1219 1145 1260 1507 1368 1105 1241 1671 1429 1108 980 980 1065 1056 1093 1341 1318 1464 1443 1466 1481 1431 1473 1608 1747 1699 1526 1232 1348 1711 1797 1631 1461 1270 1061 1101 1144 1105 1031 897 1058 934
0 0 0 0 0 0 0 0 0 0 0 0 0 0 0 0 0 0 0 1 8 7 0 0 0 5 26 469 332 646 850 920 735 877 970 1221 1232 1497 1580 1596 1624 1603 1544 1377 1125 1133 1382 1510 794 871 899 971 1194 997 863 911 1085 1060 1131 1345 1376 1386 1509 1558 1446 1388 1545 1703 1680 1626 1223 1261 1409 1544 1639 1518 1392 1135 953 939 1003 891 753 880 746 648
0 0 0 0 0 0 0 0 0 0 0 0 0 0 0 0 0 4 0 9 6 0 0 0 0 51 158 258 603 913 943 910 825 869 986 1066 1216 1347 1542 1636 1661 1611 1432 1211 1064 1097 1435 1829 1075 931 915 867 749 850 907 932 1031 1098 1135 1271 1442 1453 1610 1628 1434 1459 1523 1704 1716 1262 1090 1210 1255 1199 1390 1200 955 990 1019 834 808 574 473 614 455 359
0 0 0 0 0 0 0 0 0 0 0 0 0 0 0 0 0 0 0 0 0 0 0 4 98 130 160 212 488 821 869 823 867 922 974 1000 1196 1281 1223 1406 1528 1488 1423 1238 1024 998 1289 1687 1155 1110 1071 834 730 804 887 956 986 994 1175 1197 1354 1406 1564 1634 1496 1476 1706 1794 1419 946 975 958 869 959 1154 953 777 794 750 716 696 609 399 320 540 474
0 0 0 0 0 0 0 0 0 0 0 0 0 0 0 0 0 0 2 0 0 0 0 2 254 412 150 344 464 970 883 807 783 813 952 1021 1107 1168 1183 1257 1379 1484 1456 1376 1216 1140 1128 1450 1224 1070 974 835 763 810 850 918 1011 988 1206 1259 1316 1382 1487 1540 1353 1555 1751 1508 1026 841 848 912 786 904 998 828 707 602 500 442 431 406 307 462 539 406
0 0 0 0 0 0 0 0 0 0 0 0 0 0 0 0 1 0 0 0 0 0 0 59 0 150 321 535 433 788 699 742 735 774 871 922 970 986 1045 1101 1174 1226 1365 1292 1301 1286 1298 1332 1052 975 756 798 1029 948 830 942 975 966 1172 1396 1350 1291 1484 1520 1364 1401 1252 1006 874 845 847 929 836 640 682 629 534 475 550 414 378 443 637 447 299 243
0 0 2 0 0 0 0 0 0 2 0 0 0 0 0 0 143 0 0 32 0 0 3 0 48 96 230 421 289 500 603 684 716 764 775 750 848 965 950 1039 1006 1081 1200 1174 1107 1142 1268 1241 966 882 735 808 952 855 925 1003 1030 1003 1033 1344 1410 1382 1452 1457 1192 1103 747 771 826 840 852 872 781 484 461 476 460 388 454 356 338 398 435 460 242 359
0 0 0 0 0 0 0 0 14 0 0 0 0 0 0 6 0 0 0 0 0 36 8 59 34 304 258 170 224 325 489 650 706 752 710 668 737 780 823 889 966 1035 1035 1037 1013 1126 1103 1135 937 863 797 810 784 790 862 895 887 946 1063 1291 1346 1404 1388 1267 1055 805 668 672 788 826 847 727 633 478 458 460 357 366 407 341 243 279 382 179 244 201
0 0 0 4 1 12 4 0 0 0 0 1 0 0 2 0 9 0 0 0 0 1 0 0 1 231 19 138 454 497 515 586 582 588 664 678 629 671 676 699 761 816 868 913 900 938 965 908 821 850 843 851 883 923 961 860 788 841 924 1042 1203 1324 1343 966 921 675 666 656 737 823 755 603 490 492 496 426 243 316 252 248 253 281 165 280 190 212
0 0 0 2 12 37 8 0 0 0 0 6 4 5 0 30 42 1 0 2 0 0 0 53 28 102 158 395 394 476 472 520 574 570 630 682 713 767 698 673 658 565 611 734 775 756 791 760 783 828 930 925 935 1001 950 856 697 721 736 889 1162 1145 952 823 794 573 610 635 748 798 687 547 428 471 480 305 200 276 198 224 196 88 292 266 100 114
480 6 7 5 0 6 6 1 0 0 0 60 81 6 4 31 0 34 20 58 93 17 32 25 11 267 206 491 469 368 405 487 614 561 563 649 612 633 630 607 555 533 513 685 726 674 534 660 552 527 786 902 932 838 856 859 728 632 739 764 962 1025 931 798 645 504 528 579 672 679 641 514 319 305 273 198 212 281 215 119 96 77 181 92 61 8
3 9 0 10 10 22 18 12 0 0 14 18 70 8 0 0 0 0 1 0 9 167 151 73 20 264 359 521 439 376 339 496 544 550 548 545 539 619 600 592 424 248 426 330 239 279 340 513 261 200 428 434 665 685 659 521 574 809 883 775 878 984 944 787 572 454 468 529 608 653 591 419 234 363 352 203 204 255 151 97 48 17 25 34 69 0
12 3 0 0 11 25 25 15 22 16 103 0 0 19 1 0 10 6 2 0 2 0 0 115 102 183 393 427 399 304 314 364 452 476 448 449 443 468 472 574 421 307 191 141 122 181 179 60 66 101 209 421 715 652 657 574 604 857 1036 852 825 885 889 846 653 445 423 499 563 578 453 284 326 504 210 52 90 97 51 19 23 16 4 6 1 0
2 1 0 0 2 3 10 12 7 0 0 142 33 2 32 4 12 0 0 2 40 4 59 143 371 398 373 329 362 290 244 283 439 453 422 391 354 409 253 216 171 194 206 219 242 82 42 64 127 138 146 604 675 574 401 276 281 731 861 872 824 746 649 617 482 346 363 389 484 429 274 246 472 442 79 0 0 0 0 0 0 0 0 0 0 0
35 18 20 8 6 0 2 6 4 1 0 0 0 23 0 5 12 8 1 71 121 8 63 166 178 513 513 306 323 337 282 274 408 443 409 390 405 372 194 179 128 157 163 137 104 121 64 72 54 64 60 67 221 15 176 80 187 239 650 890 893 902 735 438 278 166 347 78 243 131 153 249 443 177 0 0 0 0 0 0 0 0 0 0 0 0
86 60 49 16 21 14 6 1 0 0 0 0 0 0 19 2 10 10 10 10 4 28 158 78 235 450 470 294 281 319 239 169 234 400 385 326 239 279 228 40 32 104 88 114 108 80 52 77 97 140 91 59 70 93 251 423 55 139 534 742 810 811 775 671 581 325 369 368 184 54 54 227 251 14 0 0 0 0 0 0 0 0 0 0 0 0
48 57 63 48 44 29 22 8 0 0 1 0 0 0 0 0 2 4 6 3 0 10 21 152 170 144 304 278 290 349 339 207 213 255 248 276 296 269 127 30 25 25 35 58 69 59 37 48 74 76 108 120 60 80 79 144 81 296 523 682 796 846 822 806 766 541 420 422 406 323 222 182 8 35 24 0 0 0 0 0 0 2 0 0 0 0
113 83 44 57 36 30 26 12 5 0 0 0 4 0 0 112 1 1 7 15 13 28 92 22 0 141 84 140 296 294 49 100 119 124 151 302 282 165 66 28 21 33 56 58 31 20 13 17 18 12 17 24 6 71 96 93 130 58 443 478 663 782 761 775 813 500 368 408 318 172 0 1 1 1 1 2 0 0 0 0 0 0 0 0 0 0
215 53 30 64 44 32 23 12 12 4 0 3 7 4 0 0 3 14 16 43 95 18 25 6 0 111 2 68 87 67 89 65 87 168 259 336 282 178 104 42 34 34 37 57 8 7 4 4 1 2 4 16 2 0 16 49 66 98 62 126 446 643 705 757 764 652 367 331 298 42 0 0 3 23 3 0 0 0 17 44 14 0 0 0 0 0
102 111 7 64 41 35 23 12 7 3 0 1 3 0 0 1 14 68 33 46 63 67 37 22 9 1 8 20 71 81 87 46 96 152 282 302 263 176 67 9 6 24 44 39 26 11 5 12 15 1 8 7 4 3 43 75 20 69 92 65 179 14 0 352 430 436 459 11 232 11 109 94 78 43 10 3 10 9 12 22 68 128 51 0 0 0
32 203 8 45 64 54 12 11 3 2 14 3 3 1 0 0 1 1 21 27 64 19 27 17 15 17 7 5 31 17 44 54 54 91 158 238 266 194 73 13 5 12 2 30 25 4 0 1 8 27 7 6 2 11 20 37 18 55 59 55 99 120 161 19 22 1 89 191 78 82 52 73 91 42 19 3 1 5 8 5 6 8 0 153 24 0
25 101 32 62 64 32 8 1 3 7 1 0 3 1 0 0 1 2 2 2 22 34 17 34 26 17 13 4 2 2 24 8 91 52 95 80 151 157 92 28 9 3 0 5 11 5 0 0 4 1 1 0 0 4 12 12 4 2 14 41 62 111 1 3 0 0 0 15 80 11 30 0 0 5 6 0 0 0 0 0 0 0 10 54 0 0
20 27 31 22 20 19 10 33 7 3 2 0 1 0 1 2 4 2 1 1 2 4 11 16 25 36 25 20 10 5 5 29 56 36 44 37 28 60 63 25 13 8 3 2 8 1 1 3 8 5 0 0 0 0 0 0 3 0 1 5 1 8 20 0 37 88 150 158 26 7 29 13 0 0 0 2 7 14 4 0 0 0 0 0 0 0
10 5 2 21 10 26 16 3 3 9 0 2 2 3 0 3 5 7 2 1 1 5 3 4 7 28 38 26 22 3 9 26 14 9 52 8 2 3 6 6 7 10 4 1 4 5 7 3 5 16 14 1 0 0 4 2 0 0 0 0 0 0 2 1 0 1 45 94 12 2 4 3 1 1 0 2 5 8 9 5 5 0 0 0 0 0
5 8 9 48 9 8 6 2 17 6 11 7 0 1 0 6 2 6 0 1 1 1 2 4 6 4 14 24 2 4 15 12 18 7 11 8 3 2 4 0 2 3 0 0 1 1 4 4 8 13 9 5 3 4 4 5 7 13 8 4 0 2 0 0 0 0 1 3 1 1 0 1 0 0 0 1 1 1 1 1 3 0 0 0 0 0
14 18 75 16 59 10 1 5 1 19 6 0 3 1 7 2 2 3 0 3 2 5 2 0 0 1 0 1 11 3 3 2 13 5 0 2 2 1 3 2 3 3 4 2 0 0 6 3 5 9 10 10 8 14 7 10 14 12 10 7 8 3 1 4 1 0 0 0 0 0 0 0 0 0 0 0 0 0 0 0 0 0 0 0 0 0
26 22 72 34 64 38 27 15 1 2 2 1 4 4 1 12 5 1 0 0 0 0 0 1 0 0 0 7 38 46 33 10 1 0 1 7 2 0 0 0 0 0 1 3 7 6 0 1 13 13 5 10 8 6 6 12 12 5 5 7 12 2 5 3 3 5 0 2 0 0 0 0 0 0 0 0 0 0 0 0 0 0 0 0 0 0
4 10 24 20 33 14 28 3 1 0 0 0 4 0 0 5 4 0 0 0 0 1 1 0 1 2 0 1 0 5 12 6 0 0 0 0 0 0 0 0 0 0 1 4 3 4 2 6 12 12 14 12 12 9 3 9 13 9 8 6 12 12 5 3 1 4 9 7 7 7 7 8 8 7 3 1 1 2 3 6 8 2 1 0 0 0
2 0 0 0 2 1 1 4 0 1 0 0 0 1 1 0 0 0 1 2 1 2 4 4 1 0 5 8 8 4 3 0 1 3 0 0 0 0 0 0 0 0 2 3 6 5 5 10 17 14 10 18 13 3 4 3 2 8 8 6 8 3 0 0 0 0 1 8 6 4 8 8 9 5 11 13 10 9 8 6 4 2 0 0 0 0
0 0 0 0 0 0 0 0 1 2 0 0 0 0 0 0 0 1 2 10 10 4 2 0 0 0 1 0 4 3 3 0 0 0 0 0 0 0 0 0 0 0 1 2 3 3 4 6 8 10 10 6 9 14 10 11 11 7 5 1 0 0 0 0 0 0 0 0 0 0 2 1 0 0 0 0 0 1 1 1 2 2 0 0 0 0
0 4 0 0 0 0 2 1 1 0 0 0 0 2 0 0 0 0 0 2 5 3 2 0 2 6 3 0 0 0 0 0 0 0 0 0 0 0 0 0 0 0 0 0 0 1 2 4 5 5 6 7 8 14 14 7 4 6 6 3 0 0 0 0 0 0 0 0 0 0 0 0 0 0 0 0 0 0 0 0 0 0 0 0 0 0
0 0 0 0 0 0 0 0 0 0 0 0 0 0 1 0 0 0 0 0 1 2 0 3 3 2 0 0 0 0 0 0 0 0 0 0 0 0 0 0 0 0 0 0 0 0 0 1 3 4 3 4 7 10 10 10 10 5 0 0 0 0 0 0 0 0 0 0 0 0 0 0 0 0 0 0 0 0 0 0 0 0 0 0 0 0
0 0 0 0 0 0 0 0 0 0 0 0 0 1 0 0 0 0 0 0 4 2 0 0 0 0 4 3 0 0 0 0 0 0 0 0 0 0 0 0 0 0 0 0 0 0 0 0 0 0 1 2 1 2 2 4 3 2 2 4 2 0 0 0 0 0 0 0 0 0 0 0 0 0 0 0 0 0 0 0 0 0 0 0 0 0
0 0 0 0 0 0 0 0 3 2 1 0 0 0 0 0 0 1 0 0 2 4 1 0 0 0 0 0 0 0 1 1 0 0 0 0 0 0 0 0 0 0 0 0 0 0 0 0 0 0 0 0 0 0 0 0 2 2 1 0 0 0 0 0 0 0 0 0 0 0 0 0 0 0 0 0 0 0 0 0 0 0 0 0 0 0
0 0 0 0 0 0 0 0 0 0 0 0 2 2 1 0 0 2 2 0 0 1 0 0 0 0 0 0 0 0 0 0 0 0 0 1 2 0 0 0 0 0 0 0 0 0 0 0 0 0 0 0 0 0 0 0 0 0 0 0 0 0 0 0 0 0 0 0 0 0 0 0 0 0 0 0 0 0 0 0 0 0 0 0 0 0
0 0 0 0 0 0 0 0 0 0 0 0 1 1 1 0 0 1 0 1 3 1 0 0 0 0 0 0 0 0 0 0 0 0 0 0 0 0 0 0 0 0 0 0 0 0 0 0 0 0 0 0 0 0 0 0 0 0 0 0 0 0 0 0 0 0 0 0 0 0 0 0 0 0 0 0 0 0 0 0 0 0 0 0 0 0
0 0 0 0 0 0 0 0 0 1 0 0 0 0 0 0 0 0 0 0 0 0 0 0 0 2 2 2 0 0 0 0 0 0 0 0 0 0 0 0 0 0 0 0 0 0 0 0 0 0 0 0 0 0 0 0 0 0 0 0 0 0 0 0 0 0 0 0 0 0 0 0 0 0 0 0 0 0 0 0 0 0 0 0 0 0
0 0 0 0 0 0 0 0 0 1 0 1 0 0 0 0 0 0 0 0 0 0 0 0 0 0 0 0 0 0 0 0 0 0 0 0 0 0 0 0 0 0 0 0 0 0 0 0 0 0 0 0 0 0 0 0 0 0 0 0 0 0 0 0 0 0 0 0 0 0 0 0 0 0 0 0 0 0 0 0 0 0 0 0 0 0
Wind_Speed
nan nan nan nan nan nan nan nan nan nan nan nan nan nan nan nan nan nan nan nan nan nan nan nan nan nan nan nan nan nan nan 29 29 31 31 32 31 29 28 29 29 26 25 27 28 25 20 15 15 14 12 11 12 14 14 14 16 19 23 24 23 18 18 13 9 9 9 10 11 11 11 13 15 16 16 16 16 17 17 15 15 15 15 14 13 11
nan nan nan nan nan nan nan nan nan nan nan nan nan nan nan nan nan nan nan nan nan nan nan nan nan nan nan nan nan nan nan nan 24 26 26 27 27 26 25 25 24 24 26 27 26 22 19 15 14 14 11 12 12 12 13 14 15 16 18 21 19 17 15 12 9 9 9 10 11 11 12 13 14 15 16 17 18 19 18 16 15 15 14 13 12 12
nan nan nan nan nan nan nan nan nan nan nan nan nan nan nan nan nan nan nan nan nan nan nan nan nan nan nan nan nan nan nan nan nan 23 23 25 24 22 21 20 20 19 19 22 20 19 16 14 16 14 12 11 11 11 11 13 13 14 13 15 16 14 12 10 8 7 10 10 10 11 11 9 12 14 18 20 20 20 19 17 16 15 14 14 13 13
nan nan nan nan nan nan nan nan nan nan nan nan nan nan nan nan nan nan nan nan nan nan nan nan nan nan nan nan nan nan nan nan nan 22 19 21 20 18 17 18 17 14 13 15 15 15 13 13 14 14 12 11 10 9 8 10 11 11 10 12 15 14 11 7 5 5 8 9 11 12 10 8 11 15 20 23 22 22 20 18 17 16 16 14 13 12
nan nan nan nan nan nan nan nan nan nan nan nan nan nan nan nan nan nan nan nan nan nan nan nan nan nan nan nan nan nan nan nan nan nan nan 13 12 13 12 15 14 12 10 10 13 11 11 10 11 12 11 10 8 8 7 8 9 8 10 12 16 14 10 5 5 6 9 14 15 17 15 14 16 19 21 23 22 21 20 19 17 17 17 15 14 12
nan nan nan nan nan nan nan nan nan nan nan nan nan nan nan nan nan nan nan nan nan nan nan nan nan nan nan nan nan nan nan 23 nan nan nan 10 9 9 11 12 10 5 5 8 11 11 9 9 13 13 11 8 7 7 6 7 8 9 10 13 17 16 7 3 5 9 12 13 15 18 18 18 20 19 19 19 21 21 20 19 19 19 18 17 15 14
nan nan nan nan nan nan nan nan nan nan nan nan nan nan nan nan nan nan nan nan nan nan nan nan nan nan nan nan nan nan nan 20 nan nan nan nan 9 7 8 9 7 5 6 8 10 12 10 13 13 14 11 9 8 7 9 9 8 10 10 14 18 17 8 4 7 14 12 11 15 19 20 21 21 21 19 20 22 23 23 23 22 21 20 18 17 15
nan nan nan nan nan nan nan nan nan nan nan nan nan nan nan nan nan nan nan nan nan nan nan nan nan nan nan nan nan nan 19 17 18 nan 17 14 10 6 7 8 8 8 8 10 9 9 9 10 12 14 13 11 10 10 11 9 9 10 9 15 16 15 9 9 13 13 10 12 15 18 20 22 21 21 22 23 25 26 26 26 24 23 22 20 17 15
nan nan nan nan nan nan nan nan nan nan nan nan nan nan nan nan nan nan nan nan nan nan nan nan nan nan nan nan nan 21 18 17 19 22 22 17 13 10 8 9 11 12 14 13 13 12 9 8 13 17 16 13 12 12 13 10 11 12 12 17 19 12 10 15 15 11 10 13 15 18 22 22 20 24 25 26 28 28 28 28 26 25 22 19 17 15
nan nan nan nan nan nan nan nan nan nan nan nan nan nan nan nan nan nan nan nan nan nan nan nan nan nan nan nan nan 22 18 18 20 20 19 20 16 12 11 9 9 16 19 21 20 19 16 17 17 19 18 15 12 12 15 13 14 14 14 18 18 12 14 16 13 12 15 16 17 19 19 20 21 24 25 27 29 29 29 29 27 25 22 19 17 16
nan nan nan nan nan nan nan nan nan nan nan nan nan nan nan nan nan nan nan nan nan nan nan nan nan nan nan nan 20 21 24 22 19 18 20 22 19 13 11 9 9 16 23 25 22 22 22 24 20 20 19 16 15 14 14 14 15 17 16 19 18 14 16 16 13 15 16 16 17 19 19 21 23 24 26 28 28 28 29 29 27 24 21 18 16 15
nan nan nan nan nan nan nan nan nan nan nan nan nan nan nan nan nan nan nan nan nan nan nan nan nan nan nan nan nan 24 23 22 20 18 23 26 22 14 11 8 10 17 22 24 25 25 25 25 21 20 19 17 16 15 14 14 15 17 17 19 19 18 20 16 15 15 18 17 19 21 21 22 23 23 25 28 29 29 29 27 26 23 20 18 16 16
nan nan nan nan nan nan nan nan nan nan nan nan nan nan nan nan nan nan nan nan nan nan nan nan nan nan nan nan 23 24 23 23 22 20 24 27 22 16 12 11 12 19 23 28 28 26 27 27 25 23 21 19 17 15 15 14 15 16 18 20 21 20 21 18 18 17 19 20 21 22 22 23 22 22 24 26 29 29 29 28 25 22 20 19 18 17
nan nan nan nan nan nan nan nan nan nan nan nan nan nan nan nan nan nan nan nan nan nan nan nan nan nan nan nan 24 25 25 25 24 22 25 26 22 18 18 15 15 18 23 29 31 31 34 36 38 37 30 22 18 15 13 13 15 18 17 20 21 22 22 22 20 20 21 22 23 24 24 23 21 21 21 24 27 29 29 27 26 23 21 20 20 20
nan nan nan nan nan nan nan nan nan nan nan nan nan nan nan nan nan nan nan nan nan nan nan nan nan nan nan 23 21 24 26 26 25 23 26 25 24 23 21 19 18 17 21 30 32 32 32 34 36 35 28 24 22 17 14 14 16 19 18 19 23 24 22 22 21 21 22 23 24 23 24 22 19 19 19 22 26 28 28 27 26 25 23 22 22 20
nan nan nan nan nan nan nan nan nan nan nan nan nan nan nan nan nan nan nan nan nan nan nan nan nan nan 21 23 21 24 27 28 26 26 27 29 25 25 21 18 19 20 26 33 32 32 31 30 32 32 25 21 19 16 15 16 18 19 20 21 22 23 21 20 20 21 20 22 23 22 21 18 17 19 20 23 25 26 26 25 24 24 23 21 21 20
nan nan nan nan nan nan nan nan nan nan nan nan nan nan nan nan nan nan nan nan nan nan nan nan nan 23 20 21 25 25 25 28 28 28 28 30 32 30 29 28 29 28 30 30 29 31 33 27 29 34 29 26 25 20 18 19 19 20 20 20 19 19 17 17 17 19 19 21 22 20 17 16 17 18 19 21 21 23 24 24 23 23 22 21 20 22
nan nan nan nan nan nan nan nan nan nan nan nan nan nan nan nan nan nan nan nan nan nan nan nan 22 22 22 20 24 25 27 28 28 28 29 30 31 33 33 31 28 25 24 25 26 27 30 29 30 34 33 30 28 26 24 23 22 19 17 15 15 15 14 14 16 19 19 20 20 20 18 17 15 15 18 20 21 24 26 26 26 26 25 24 24 24
nan nan nan nan nan nan nan nan nan nan nan nan nan nan nan nan nan nan nan nan nan nan nan nan nan 19 17 18 21 24 26 28 28 29 30 30 32 33 32 32 32 28 25 23 24 27 31 35 33 33 35 35 32 30 28 25 20 15 11 11 12 13 14 16 17 19 19 19 20 18 16 17 15 15 17 20 24 26 27 27 26 26 26 27 26 26
nan nan nan nan nan nan nan nan nan nan nan nan nan nan nan nan 25 nan nan nan nan nan nan nan nan nan 17 18 18 19 24 28 29 30 31 30 31 32 33 30 29 30 29 27 28 29 33 39 39 34 35 35 32 30 26 21 15 11 11 14 15 20 20 19 16 17 18 19 20 19 19 18 16 16 18 20 24 25 24 23 23 24 24 24 26 26
nan nan nan nan nan nan nan nan nan nan nan nan nan nan nan nan nan nan nan nan nan nan nan nan nan 16 15 14 13 14 19 24 29 30 32 33 35 36 35 33 29 30 31 31 34 35 36 44 45 38 38 35 31 26 18 16 12 12 17 18 18 15 15 14 14 15 19 20 19 20 20 18 18 20 21 20 20 21 20 20 20 20 22 24 25 25
nan nan nan nan nan nan nan nan nan nan nan nan nan nan nan nan nan nan nan nan nan nan nan nan nan 17 nan 13 11 14 17 22 28 32 33 34 36 37 37 40 40 39 40 37 36 39 41 47 47 43 41 36 27 20 16 16 18 18 13 15 16 15 13 14 13 14 18 18 19 20 21 20 21 22 21 20 19 17 17 17 17 19 21 21 23 21
nan nan nan nan nan nan nan nan nan nan nan nan nan nan nan nan nan nan nan nan nan nan nan nan nan 17 16 14 13 15 21 25 28 32 34 35 37 38 38 41 42 42 42 41 44 45 49 53 51 45 43 34 23 19 20 22 19 16 13 13 16 17 17 16 16 17 18 20 21 22 23 22 21 22 21 20 17 16 16 16 17 nan 17 18 20 20
28 nan nan nan nan nan nan nan nan nan nan nan nan nan nan nan nan nan nan nan nan nan nan nan nan 19 15 13 16 23 23 25 26 28 31 34 36 38 40 42 43 43 42 43 46 49 50 48 47 44 39 31 22 20 25 27 21 17 15 14 15 17 19 18 18 19 19 20 22 23 23 22 21 23 22 20 17 16 16 16 nan nan 15 nan nan nan
nan nan nan nan nan nan nan nan nan nan nan nan nan nan nan nan nan nan nan nan nan 26 26 nan nan 19 18 19 21 23 25 25 26 27 29 31 33 35 37 37 38 39 41 42 45 46 49 53 53 46 41 32 28 34 39 36 29 20 16 14 15 16 17 19 20 19 18 18 19 21 24 24 23 24 24 22 21 20 19 nan nan nan nan nan nan nan
nan nan nan nan nan nan nan nan nan nan 35 nan nan nan nan nan nan nan nan nan nan nan nan 26 24 21 20 21 23 24 27 25 25 27 28 30 30 31 31 32 34 35 34 33 35 37 41 nan nan 48 47 42 39 38 36 32 28 23 17 16 16 17 17 20 20 19 18 18 19 21 24 26 25 26 26 nan nan nan nan nan nan nan nan nan nan nan
nan nan nan nan nan nan nan nan nan nan nan 33 nan nan nan nan nan nan nan nan nan nan nan 26 27 26 22 24 24 25 26 26 22 23 26 28 28 28 29 27 28 31 31 29 25 nan nan nan 45 49 48 45 44 39 32 27 26 25 22 20 18 18 23 30 32 28 21 21 22 23 25 26 27 27 nan nan nan nan nan nan nan nan nan nan nan nan
nan nan nan nan nan nan nan nan nan nan nan nan nan nan nan nan nan nan nan nan 33 nan nan 29 28 29 23 26 26 26 28 27 23 21 23 26 25 26 28 27 28 31 33 35 34 32 nan nan nan nan nan nan 45 nan 38 nan 31 29 28 25 25 25 26 26 28 31 30 nan 31 33 34 32 30 30 nan nan nan nan nan nan nan nan nan nan nan nan
nan nan nan nan nan nan nan nan nan nan nan nan nan nan nan nan nan nan nan nan nan nan 29 nan 30 30 29 28 28 29 29 28 25 23 23 24 25 26 28 nan nan 29 nan 37 35 nan nan nan nan 45 nan nan nan nan 40 36 nan 33 34 32 29 28 28 27 28 29 30 33 33 nan nan 35 34 nan nan nan nan nan nan nan nan nan nan nan nan nan
nan nan nan nan nan nan nan nan nan nan nan nan nan nan nan nan nan nan nan nan nan nan nan 34 35 36 31 31 32 31 30 29 27 24 23 24 25 25 28 nan nan nan nan nan nan nan nan nan nan nan 43 44 nan nan nan 37 nan 33 34 34 32 31 28 26 27 28 28 31 32 33 34 36 nan nan nan nan nan nan nan nan nan nan nan nan nan nan
27 nan nan nan nan nan nan nan nan nan nan nan nan nan nan 39 nan nan nan nan nan nan nan nan nan 32 nan 32 33 32 nan 31 30 28 27 26 25 26 nan nan nan nan nan nan nan nan nan nan nan nan nan nan nan nan nan nan 34 nan 36 34 33 33 29 27 28 29 28 29 29 31 nan nan nan nan nan nan nan nan nan nan nan nan nan nan nan nan
28 nan nan nan nan nan nan nan nan nan nan nan nan nan nan nan nan nan nan nan nan nan nan nan nan 27 nan nan nan nan nan nan nan 30 28 26 26 26 28 nan nan nan nan nan nan nan nan nan nan nan nan nan nan nan nan nan nan nan nan 36 36 33 31 30 29 28 28 26 26 nan nan nan nan nan nan nan nan nan nan nan nan nan nan nan nan nan
27 27 nan nan nan nan nan nan nan nan nan nan nan nan nan nan nan nan nan nan nan nan nan nan nan nan nan nan nan nan nan nan nan 32 28 29 29 29 nan nan nan nan nan nan nan nan nan nan nan nan nan nan nan nan nan nan nan nan nan nan 34 nan nan 31 28 27 27 nan 27 nan 23 nan nan nan nan nan nan nan nan nan nan 31 nan nan nan nan
nan 26 nan nan nan nan nan nan nan nan nan nan nan nan nan nan nan nan nan nan nan nan nan nan nan nan nan nan nan nan nan nan nan nan 30 29 31 33 nan nan nan nan nan nan nan nan nan nan nan nan nan nan nan nan nan nan nan nan nan nan nan 33 31 nan nan nan nan 27 nan nan nan nan nan nan nan nan nan nan nan nan nan nan nan 28 nan nan
nan 24 nan nan nan nan nan nan nan nan nan nan nan nan nan nan nan nan nan nan nan nan nan nan nan nan nan nan nan nan nan nan nan nan nan nan 33 34 nan nan nan nan nan nan nan nan nan nan nan nan nan nan nan nan nan nan nan nan nan nan nan 32 nan nan nan nan nan nan nan nan nan nan nan nan nan nan nan nan nan nan nan nan nan nan nan nan
nan nan nan nan nan nan nan nan nan nan nan nan nan nan nan nan nan nan nan nan nan nan nan nan nan nan nan nan nan nan nan nan nan nan nan nan nan nan nan nan nan nan nan nan nan nan nan nan nan nan nan nan nan nan nan nan nan nan nan nan nan nan nan nan nan nan 30 31 nan nan nan nan nan nan nan nan nan nan nan nan nan nan nan nan nan nan
nan nan nan nan nan nan nan nan nan nan nan nan nan nan nan nan nan nan nan nan nan nan nan nan nan nan nan nan nan nan nan nan nan nan nan nan nan nan nan nan nan nan nan nan nan nan nan nan nan nan nan nan nan nan nan nan nan nan nan nan nan nan nan nan nan nan nan nan nan nan nan nan nan nan nan nan nan nan nan nan nan nan nan nan nan nan
nan nan nan nan nan nan nan nan nan nan nan nan nan nan nan nan nan nan nan nan nan nan nan nan nan nan nan nan nan nan nan nan nan nan nan nan nan nan nan nan nan nan nan nan nan nan nan nan nan nan nan nan nan nan nan nan nan nan nan nan nan nan nan nan nan nan nan nan nan nan nan nan nan nan nan nan nan nan nan nan nan nan nan nan nan nan
nan nan nan nan nan nan nan nan nan nan nan nan nan nan nan nan nan nan nan nan nan nan nan nan nan nan nan nan nan nan nan nan nan nan nan nan nan nan nan nan nan nan nan nan nan nan nan nan nan nan nan nan nan nan nan nan nan nan nan nan nan nan nan nan nan nan nan nan nan nan nan nan nan nan nan nan nan nan nan nan nan nan nan nan nan nan
nan nan nan nan nan nan nan nan nan nan nan nan nan nan nan nan nan nan nan nan nan nan nan nan nan nan nan nan nan nan nan nan nan nan nan nan nan nan nan nan nan nan nan nan nan nan nan nan nan nan nan nan nan nan nan nan nan nan nan nan nan nan nan nan nan nan nan nan nan nan nan nan nan nan nan nan nan nan nan nan nan nan nan nan nan nan
nan nan nan nan nan nan nan nan nan nan nan nan nan nan nan nan nan nan nan nan nan nan nan nan nan nan nan nan nan nan nan nan nan nan nan nan nan nan nan nan nan nan nan nan nan nan nan nan nan nan nan nan nan nan nan nan nan nan nan nan nan nan nan nan nan nan nan nan nan nan nan nan nan nan nan nan nan nan nan nan nan nan nan nan nan nan
nan nan nan nan nan nan nan nan nan nan nan nan nan nan nan nan nan nan nan nan nan nan nan nan nan nan nan nan nan nan nan nan nan nan nan nan nan nan nan nan nan nan nan nan nan nan nan nan nan nan nan nan nan nan nan nan nan nan nan nan nan nan nan nan nan nan nan nan nan nan nan nan nan nan nan nan nan nan nan nan nan nan nan nan nan nan
nan nan nan nan nan nan nan nan nan nan nan nan nan nan nan nan nan nan nan nan nan nan nan nan nan nan nan nan nan nan nan nan nan nan nan nan nan nan nan nan nan nan nan nan nan nan nan nan nan nan nan nan nan nan nan nan nan nan nan nan nan nan nan nan nan nan nan nan nan nan nan nan nan nan nan nan nan nan nan nan nan nan nan nan nan nan
nan nan nan nan nan nan nan nan nan nan nan nan nan nan nan nan nan nan nan nan nan nan nan nan nan nan nan nan nan nan nan nan nan nan nan nan nan nan nan nan nan nan nan nan nan nan nan nan nan nan nan nan nan nan nan nan nan nan nan nan nan nan nan nan nan nan nan nan nan nan nan nan nan nan nan nan nan nan nan nan nan nan nan nan nan nan
nan nan nan nan nan nan nan nan nan nan nan nan nan nan nan nan nan nan nan nan nan nan nan nan nan nan nan nan nan nan nan nan nan nan nan nan nan nan nan nan nan nan nan nan nan nan nan nan nan nan nan nan nan nan nan nan nan nan nan nan nan nan nan nan nan nan nan nan nan nan nan nan nan nan nan nan nan nan nan nan nan nan nan nan nan nan
nan nan nan nan nan nan nan nan nan nan nan nan nan nan nan nan nan nan nan nan nan nan nan nan nan nan nan nan nan nan nan nan nan nan nan nan nan nan nan nan nan nan nan nan nan nan nan nan nan nan nan nan nan nan nan nan nan nan nan nan nan nan nan nan nan nan nan nan nan nan nan nan nan nan nan nan nan nan nan nan nan nan nan nan nan nan
nan nan nan nan nan nan nan nan nan nan nan nan nan nan nan nan nan nan nan nan nan nan nan nan nan nan nan nan nan nan nan nan nan nan nan nan nan nan nan nan nan nan nan nan nan nan nan nan nan nan nan nan nan nan nan nan nan nan nan nan nan nan nan nan nan nan nan nan nan nan nan nan nan nan nan nan nan nan nan nan nan nan nan nan nan nan
nan nan nan nan nan nan nan nan nan nan nan nan nan nan nan nan nan nan nan nan nan nan nan nan nan nan nan nan nan nan nan nan nan nan nan nan nan nan nan nan nan nan nan nan nan nan nan nan nan nan nan nan nan nan nan nan nan nan nan nan nan nan nan nan nan nan nan nan nan nan nan nan nan nan nan nan nan nan nan nan nan nan nan nan nan nan
nan nan nan nan nan nan nan nan nan nan nan nan nan nan nan nan nan nan nan nan nan nan nan nan nan nan nan nan nan nan nan nan nan nan nan nan nan nan nan nan nan nan nan nan nan nan nan nan nan nan nan nan nan nan nan nan nan nan nan nan nan nan nan nan nan nan nan nan nan nan nan nan nan nan nan nan nan nan nan nan nan nan nan nan nan nan
nan nan nan nan nan nan nan nan nan nan nan nan nan nan nan nan nan nan nan nan nan nan nan nan nan nan nan nan nan nan nan nan nan nan nan nan nan nan nan nan nan nan nan nan nan nan nan nan nan nan nan nan nan nan nan nan nan nan nan nan nan nan nan nan nan nan nan nan nan nan nan nan nan nan nan nan nan nan nan nan nan nan nan nan nan nan
nan nan nan nan nan nan nan nan nan nan nan nan nan nan nan nan nan nan nan nan nan nan nan nan nan nan nan nan nan nan nan nan nan nan nan nan nan nan nan nan nan nan nan nan nan nan nan nan nan nan nan nan nan nan nan nan nan nan nan nan nan nan nan nan nan nan nan nan nan nan nan nan nan nan nan nan nan nan nan nan nan nan nan nan nan nan
Wind_Direction
nan nan nan nan nan nan nan nan nan nan nan nan nan nan nan nan nan nan nan nan nan nan nan nan nan nan nan nan nan nan nan 247 251 258 262 267 268 272 276 278 279 286 295 290 297 301 288 282 285 291 317 315 320 331 333 334 325 307 290 300 317 314 316 312 294 264 240 232 235 231 223 222 226 232 236 241 248 250 249 252 248 245 235 234 238 242
nan nan nan nan nan nan nan nan nan nan nan nan nan nan nan nan nan nan nan nan nan nan nan nan nan nan nan nan nan nan nan nan 258 264 268 272 275 275 283 284 288 281 274 278 286 291 277 274 288 294 305 306 323 329 329 331 324 324 307 312 317 318 309 301 301 269 248 226 234 223 211 219 233 238 238 244 247 248 246 243 236 235 231 231 235 238
nan nan nan nan nan nan nan nan nan nan nan nan nan nan nan nan nan nan nan nan nan nan nan nan nan nan nan nan nan nan nan nan nan 268 273 277 280 280 287 295 296 289 281 280 284 281 271 278 286 291 300 309 322 325 333 325 324 328 325 314 313 301 294 295 303 285 252 232 230 215 212 234 242 238 239 243 245 245 243 235 229 231 235 237 234 238
nan nan nan nan nan nan nan nan nan nan nan nan nan nan nan nan nan nan nan nan nan nan nan nan nan nan nan nan nan nan nan nan nan 246 259 274 288 297 301 300 299 307 299 296 304 289 275 273 278 283 295 306 314 310 320 319 323 319 318 308 305 286 276 270 309 288 253 244 233 210 217 240 246 246 245 244 243 243 240 231 228 233 239 241 237 238
nan nan nan nan nan nan nan nan nan nan nan nan nan nan nan nan nan nan nan nan nan nan nan nan nan nan nan nan nan nan nan nan nan nan nan 272 294 298 289 285 294 310 317 302 286 274 267 272 276 278 287 294 303 298 302 304 302 290 306 294 289 280 278 282 319 307 258 245 229 214 220 240 249 248 246 241 238 237 233 229 229 238 244 244 240 240
nan nan nan nan nan nan nan nan nan nan nan nan nan nan nan nan nan nan nan nan nan nan nan nan nan nan nan nan nan nan nan 238 nan nan nan 295 299 288 283 298 306 297 279 281 282 278 261 254 255 264 280 292 291 287 278 266 265 275 287 281 276 271 279 316 315 289 263 244 231 223 229 247 253 256 254 246 241 235 230 227 230 238 241 244 243 241
nan nan nan nan nan nan nan nan nan nan nan nan nan nan nan nan nan nan nan nan nan nan nan nan nan nan nan nan nan nan nan 231 nan nan nan nan 264 273 268 275 287 286 274 261 259 260 254 248 258 264 272 278 276 271 255 247 266 273 272 272 276 281 272 262 267 255 235 243 236 229 235 251 258 264 257 246 238 233 226 226 233 236 237 240 242 242
nan nan nan nan nan nan nan nan nan nan nan nan nan nan nan nan nan nan nan nan nan nan nan nan nan nan nan nan nan nan 233 228 233 nan 229 226 233 250 256 240 220 219 218 221 239 251 252 260 263 264 269 269 269 267 258 261 264 274 266 264 272 269 266 253 245 249 241 237 238 237 245 253 257 260 262 253 239 230 228 230 234 235 235 236 236 241
nan nan nan nan nan nan nan nan nan nan nan nan nan nan nan nan nan nan nan nan nan nan nan nan nan nan nan nan nan 240 236 240 232 229 225 219 216 226 232 223 209 199 196 194 207 215 221 235 244 255 263 265 272 270 263 260 265 262 256 255 268 276 259 246 251 233 248 246 244 243 248 253 250 249 253 250 239 232 230 234 233 234 234 235 240 247
nan nan nan nan nan nan nan nan nan nan nan nan nan nan nan nan nan nan nan nan nan nan nan nan nan nan nan nan nan 246 245 239 231 214 214 214 212 221 226 222 210 204 204 208 210 214 209 213 230 251 259 263 263 263 254 250 254 259 249 255 274 266 248 247 246 245 250 250 245 244 252 255 250 248 249 245 239 233 231 233 234 233 233 239 245 251
nan nan nan nan nan nan nan nan nan nan nan nan nan nan nan nan nan nan nan nan nan nan nan nan nan nan nan nan 236 238 242 236 220 216 215 204 198 212 221 218 201 208 211 210 208 212 211 217 236 254 255 257 258 259 260 251 256 262 253 256 264 262 245 249 250 254 256 247 246 246 251 254 256 255 251 245 242 237 234 233 232 231 236 248 257 258
nan nan nan nan nan nan nan nan nan nan nan nan nan nan nan nan nan nan nan nan nan nan nan nan nan nan nan nan nan 242 233 227 223 209 199 189 185 200 230 221 198 200 206 210 212 211 213 225 239 247 248 247 250 259 265 259 257 260 254 257 260 257 254 257 254 258 251 245 242 247 253 255 254 258 253 248 244 240 237 238 236 234 241 254 262 262
nan nan nan nan nan nan nan nan nan nan nan nan nan nan nan nan nan nan nan nan nan nan nan nan nan nan nan nan 234 232 230 223 222 212 198 189 189 204 221 218 202 203 211 217 216 214 215 222 228 230 232 238 243 249 259 265 262 253 250 253 249 247 251 256 257 255 249 246 243 246 249 250 250 255 257 252 248 241 236 235 240 244 252 261 266 265
nan nan nan nan nan nan nan nan nan nan nan nan nan nan nan nan nan nan nan nan nan nan nan nan nan nan nan nan 235 226 225 224 220 212 202 198 198 208 219 219 211 211 218 222 222 224 223 223 219 212 209 216 224 238 251 251 247 242 242 248 248 245 248 251 251 244 244 243 242 245 246 246 247 252 254 253 249 241 235 235 238 244 254 263 265 261
nan nan nan nan nan nan nan nan nan nan nan nan nan nan nan nan nan nan nan nan nan nan nan nan nan nan nan 251 230 224 222 222 221 217 208 203 204 208 216 223 220 226 229 231 238 247 251 256 248 228 213 212 210 220 232 239 238 238 240 244 244 244 246 251 248 243 244 237 240 242 244 245 245 249 252 251 246 242 241 240 244 247 254 260 257 257
nan nan nan nan nan nan nan nan nan nan nan nan nan nan nan nan nan nan nan nan nan nan nan nan nan nan 255 244 235 229 229 226 224 222 215 209 209 212 215 224 233 232 236 239 245 252 261 276 271 247 244 256 241 228 225 231 234 234 237 241 243 245 243 246 245 239 245 239 237 243 248 247 241 240 245 245 242 241 244 249 253 257 259 254 254 257
nan nan nan nan nan nan nan nan nan nan nan nan nan nan nan nan nan nan nan nan nan nan nan nan nan 265 252 252 241 230 226 224 224 224 220 215 214 220 219 219 220 229 237 246 245 250 259 268 264 245 243 257 259 250 245 237 234 238 240 244 247 250 249 248 251 246 244 245 245 253 258 254 243 243 247 247 250 251 250 256 260 263 261 257 259 267
nan nan nan nan nan nan nan nan nan nan nan nan nan nan nan nan nan nan nan nan nan nan nan nan 261 258 255 250 241 235 230 224 223 223 224 220 219 219 221 221 225 235 245 246 252 259 260 266 261 245 242 250 255 254 253 251 243 242 244 257 260 256 263 257 254 253 252 257 253 253 257 262 262 251 247 246 251 252 254 254 257 260 263 265 266 269
nan nan nan nan nan nan nan nan nan nan nan nan nan nan nan nan nan nan nan nan nan nan nan nan nan 257 264 252 242 232 223 218 220 224 226 226 223 222 227 230 232 238 246 255 259 260 260 260 256 243 240 247 248 250 256 258 263 267 271 277 271 267 261 255 246 249 250 257 254 257 265 268 260 251 249 246 248 252 256 258 259 263 262 263 266 269
nan nan nan nan nan nan nan nan nan nan nan nan nan nan nan nan 245 nan nan nan nan nan nan nan nan nan 265 254 244 228 221 220 220 225 228 228 229 229 227 233 241 241 242 246 250 254 260 264 264 247 234 242 246 246 264 284 287 290 260 247 243 237 240 244 249 253 258 255 256 258 259 257 258 261 260 255 257 261 266 267 267 264 263 264 264 265
nan nan nan nan nan nan nan nan nan nan nan nan nan nan nan nan nan nan nan nan nan nan nan nan nan 257 250 249 243 224 217 224 228 229 230 228 228 229 232 233 237 243 247 247 252 257 261 266 269 255 234 233 240 250 268 286 279 255 234 231 234 245 242 246 247 254 255 259 260 264 266 261 254 258 260 262 262 268 270 268 268 267 264 262 261 260
nan nan nan nan nan nan nan nan nan nan nan nan nan nan nan nan nan nan nan nan nan nan nan nan nan 258 nan 248 247 235 231 223 228 234 232 230 230 231 232 232 232 233 235 240 252 260 259 260 264 260 243 237 246 249 259 271 252 243 243 238 236 231 238 246 248 251 255 256 258 260 259 259 253 257 260 264 265 265 267 267 266 264 261 259 252 251
nan nan nan nan nan nan nan nan nan nan nan nan nan nan nan nan nan nan nan nan nan nan nan nan nan 261 252 249 248 246 243 235 233 239 239 235 233 232 233 235 236 236 237 240 240 245 255 256 258 252 245 243 252 249 256 264 265 257 254 246 235 237 238 244 253 253 249 243 243 247 249 248 247 252 257 258 258 261 262 262 259 nan 254 246 242 235
254 nan nan nan nan nan nan nan nan nan nan nan nan nan nan nan nan nan nan nan nan nan nan nan nan 261 260 260 256 254 248 246 240 241 245 242 239 237 236 235 237 237 239 241 240 241 244 250 257 257 242 240 241 246 249 256 258 248 251 252 245 249 254 257 262 264 259 250 247 246 248 248 247 252 254 253 249 255 254 254 nan nan 240 nan nan nan
nan nan nan nan nan nan nan nan nan nan nan nan nan nan nan nan nan nan nan nan nan 254 247 nan nan 262 264 268 268 272 261 251 246 240 243 248 245 244 242 242 243 243 242 242 245 244 242 240 238 232 222 222 222 224 229 233 231 241 250 253 253 260 267 267 265 267 267 266 261 251 250 251 251 252 254 252 250 254 252 nan nan nan nan nan nan nan
nan nan nan nan nan nan nan nan nan nan 233 nan nan nan nan nan nan nan nan nan nan nan nan 257 258 256 264 271 275 278 275 264 253 248 248 249 248 246 246 245 245 244 241 240 243 240 235 nan nan 217 212 213 217 223 235 239 237 236 242 237 242 253 259 257 255 255 257 264 263 254 249 246 245 247 247 nan nan nan nan nan nan nan nan nan nan nan
nan nan nan nan nan nan nan nan nan nan nan 235 nan nan nan nan nan nan nan nan nan nan nan 259 254 273 277 276 277 276 273 271 258 247 246 248 246 249 252 253 249 241 240 239 237 nan nan nan 211 209 210 214 217 222 227 237 236 232 238 238 240 244 244 237 225 219 235 253 255 252 248 246 247 249 nan nan nan nan nan nan nan nan nan nan nan nan
nan nan nan nan nan nan nan nan nan nan nan nan nan nan nan nan nan nan nan nan 250 nan nan 258 266 272 281 279 277 274 271 270 263 256 251 249 249 248 254 257 256 251 239 239 239 225 nan nan nan nan nan nan 213 nan 223 nan 224 225 235 243 241 246 250 250 245 234 230 nan 236 234 233 231 237 246 nan nan nan nan nan nan nan nan nan nan nan nan
nan nan nan nan nan nan nan nan nan nan nan nan nan nan nan nan nan nan nan nan nan nan 251 nan 271 271 271 271 269 261 266 271 269 265 259 256 255 254 255 nan nan 254 nan 234 234 nan nan nan nan 213 nan nan nan nan 221 224 nan 224 230 235 239 246 250 246 245 246 251 254 251 nan nan 239 233 nan nan nan nan nan nan nan nan nan nan nan nan nan
nan nan nan nan nan nan nan nan nan nan nan nan nan nan nan nan nan nan nan nan nan nan nan 270 269 260 252 259 258 263 266 267 268 268 263 258 256 258 258 nan nan nan nan nan nan nan nan nan nan nan 217 216 nan nan nan 224 nan 228 232 233 232 237 243 242 240 245 245 247 247 251 253 250 nan nan nan nan nan nan nan nan nan nan nan nan nan nan
252 nan nan nan nan nan nan nan nan nan nan nan nan nan nan 229 nan nan nan nan nan nan nan nan nan 261 nan 258 262 261 nan 265 263 259 257 255 254 255 nan nan nan nan nan nan nan nan nan nan nan nan nan nan nan nan nan nan 235 nan 236 233 231 234 229 228 231 234 237 240 246 252 nan nan nan nan nan nan nan nan nan nan nan nan nan nan nan nan
247 nan nan nan nan nan nan nan nan nan nan nan nan nan nan nan nan nan nan nan nan nan nan nan nan 261 nan nan nan nan nan nan nan 257 255 253 254 253 253 nan nan nan nan nan nan nan nan nan nan nan nan nan nan nan nan nan nan nan nan 234 232 229 227 227 231 236 236 237 239 nan nan nan nan nan nan nan nan nan nan nan nan nan nan nan nan nan
245 259 nan nan nan nan nan nan nan nan nan nan nan nan nan nan nan nan nan nan nan nan nan nan nan nan nan nan nan nan nan nan nan 253 254 255 255 256 nan nan nan nan nan nan nan nan nan nan nan nan nan nan nan nan nan nan nan nan nan nan 235 nan nan 229 235 237 234 nan 234 nan 235 nan nan nan nan nan nan nan nan nan nan 228 nan nan nan nan
nan 252 nan nan nan nan nan nan nan nan nan nan nan nan nan nan nan nan nan nan nan nan nan nan nan nan nan nan nan nan nan nan nan nan 252 256 259 261 nan nan nan nan nan nan nan nan nan nan nan nan nan nan nan nan nan nan nan nan nan nan nan 231 230 nan nan nan nan 230 nan nan nan nan nan nan nan nan nan nan nan nan nan nan nan 245 nan nan
nan 245 nan nan nan nan nan nan nan nan nan nan nan nan nan nan nan nan nan nan nan nan nan nan nan nan nan nan nan nan nan nan nan nan nan nan 254 259 nan nan nan nan nan nan nan nan nan nan nan nan nan nan nan nan nan nan nan nan nan nan nan 230 nan nan nan nan nan nan nan nan nan nan nan nan nan nan nan nan nan nan nan nan nan nan nan nan
nan nan nan nan nan nan nan nan nan nan nan nan nan nan nan nan nan nan nan nan nan nan nan nan nan nan nan nan nan nan nan nan nan nan nan nan nan nan nan nan nan nan nan nan nan nan nan nan nan nan nan nan nan nan nan nan nan nan nan nan nan nan nan nan nan nan 236 238 nan nan nan nan nan nan nan nan nan nan nan nan nan nan nan nan nan nan
nan nan nan nan nan nan nan nan nan nan nan nan nan nan nan nan nan nan nan nan nan nan nan nan nan nan nan nan nan nan nan nan nan nan nan nan nan nan nan nan nan nan nan nan nan nan nan nan nan nan nan nan nan nan nan nan nan nan nan nan nan nan nan nan nan nan nan nan nan nan nan nan nan nan nan nan nan nan nan nan nan nan nan nan nan nan
nan nan nan nan nan nan nan nan nan nan nan nan nan nan nan nan nan nan nan nan nan nan nan nan nan nan nan nan nan nan nan nan nan nan nan nan nan nan nan nan nan nan nan nan nan nan nan nan nan nan nan nan nan nan nan nan nan nan nan nan nan nan nan nan nan nan nan nan nan nan nan nan nan nan nan nan nan nan nan nan nan nan nan nan nan nan
nan nan nan nan nan nan nan nan nan nan nan nan nan nan nan nan nan nan nan nan nan nan nan nan nan nan nan nan nan nan nan nan nan nan nan nan nan nan nan nan nan nan nan nan nan nan nan nan nan nan nan nan nan nan nan nan nan nan nan nan nan nan nan nan nan nan nan nan nan nan nan nan nan nan nan nan nan nan nan nan nan nan nan nan nan nan
nan nan nan nan nan nan nan nan nan nan nan nan nan nan nan nan nan nan nan nan nan nan nan nan nan nan nan nan nan nan nan nan nan nan nan nan nan nan nan nan nan nan nan nan nan nan nan nan nan nan nan nan nan nan nan nan nan nan nan nan nan nan nan nan nan nan nan nan nan nan nan nan nan nan nan nan nan nan nan nan nan nan nan nan nan nan
nan nan nan nan nan nan nan nan nan nan nan nan nan nan nan nan nan nan nan nan nan nan nan nan nan nan nan nan nan nan nan nan nan nan nan nan nan nan nan nan nan nan nan nan nan nan nan nan nan nan nan nan nan nan nan nan nan nan nan nan nan nan nan nan nan nan nan nan nan nan nan nan nan nan nan nan nan nan nan nan nan nan nan nan nan nan
nan nan nan nan nan nan nan nan nan nan nan nan nan nan nan nan nan nan nan nan nan nan nan nan nan nan nan nan nan nan nan nan nan nan nan nan nan nan nan nan nan nan nan nan nan nan nan nan nan nan nan nan nan nan nan nan nan nan nan nan nan nan nan nan nan nan nan nan nan nan nan nan nan nan nan nan nan nan nan nan nan nan nan nan nan nan
nan nan nan nan nan nan nan nan nan nan nan nan nan nan nan nan nan nan nan nan nan nan nan nan nan nan nan nan nan nan nan nan nan nan nan nan nan nan nan nan nan nan nan nan nan nan nan nan nan nan nan nan nan nan nan nan nan nan nan nan nan nan nan nan nan nan nan nan nan nan nan nan nan nan nan nan nan nan nan nan nan nan nan nan nan nan
nan nan nan nan nan nan nan nan nan nan nan nan nan nan nan nan nan nan nan nan nan nan nan nan nan nan nan nan nan nan nan nan nan nan nan nan nan nan nan nan nan nan nan nan nan nan nan nan nan nan nan nan nan nan nan nan nan nan nan nan nan nan nan nan nan nan nan nan nan nan nan nan nan nan nan nan nan nan nan nan nan nan nan nan nan nan
nan nan nan nan nan nan nan nan nan nan nan nan nan nan nan nan nan nan nan nan nan nan nan nan nan nan nan nan nan nan nan nan nan nan nan nan nan nan nan nan nan nan nan nan nan nan nan nan nan nan nan nan nan nan nan nan nan nan nan nan nan nan nan nan nan nan nan nan nan nan nan nan nan nan nan nan nan nan nan nan nan nan nan nan nan nan
nan nan nan nan nan nan nan nan nan nan nan nan nan nan nan nan nan nan nan nan nan nan nan nan nan nan nan nan nan nan nan nan nan nan nan nan nan nan nan nan nan nan nan nan nan nan nan nan nan nan nan nan nan nan nan nan nan nan nan nan nan nan nan nan nan nan nan nan nan nan nan nan nan nan nan nan nan nan nan nan nan nan nan nan nan nan
nan nan nan nan nan nan nan nan nan nan nan nan nan nan nan nan nan nan nan nan nan nan nan nan nan nan nan nan nan nan nan nan nan nan nan nan nan nan nan nan nan nan nan nan nan nan nan nan nan nan nan nan nan nan nan nan nan nan nan nan nan nan nan nan nan nan nan nan nan nan nan nan nan nan nan nan nan nan nan nan nan nan nan nan nan nan
nan nan nan nan nan nan nan nan nan nan nan nan nan nan nan nan nan nan nan nan nan nan nan nan nan nan nan nan nan nan nan nan nan nan nan nan nan nan nan nan nan nan nan nan nan nan nan nan nan nan nan nan nan nan nan nan nan nan nan nan nan nan nan nan nan nan nan nan nan nan nan nan nan nan nan nan nan nan nan nan nan nan nan nan nan nan
nan nan nan nan nan nan nan nan nan nan nan nan nan nan nan nan nan nan nan nan nan nan nan nan nan nan nan nan nan nan nan nan nan nan nan nan nan nan nan nan nan nan nan nan nan nan nan nan nan nan nan nan nan nan nan nan nan nan nan nan nan nan nan nan nan nan nan nan nan nan nan nan nan nan nan nan nan nan nan nan nan nan nan nan nan nan
nan nan nan nan nan nan nan nan nan nan nan nan nan nan nan nan nan nan nan nan nan nan nan nan nan nan nan nan nan nan nan nan nan nan nan nan nan nan nan nan nan nan nan nan nan nan nan nan nan nan nan nan nan nan nan nan nan nan nan nan nan nan nan nan nan nan nan nan nan nan nan nan nan nan nan nan nan nan nan nan nan nan nan nan nan nan
nan nan nan nan nan nan nan nan nan nan nan nan nan nan nan nan nan nan nan nan nan nan nan nan nan nan nan nan nan nan nan nan nan nan nan nan nan nan nan nan nan nan nan nan nan nan nan nan nan nan nan nan nan nan nan nan nan nan nan nan nan nan nan nan nan nan nan nan nan nan nan nan nan nan nan nan nan nan nan nan nan nan nan nan nan nan